Всё
Bath Community Hospital Airport (Hot Springs, VA) 47VG Погода
There is no TAF data available at 47VG or any nearby airports.
There is no METAR data available at 47VG. Showing METAR data for KHSP (3 mi Ю).
Недавняя история METAR для HSP (для 47VG данные отсутствуют)
| Date | Time (EDT) | Flight Rules | Wind Dir. | Speed | Type | Height AGL (ft) | Visibility | Temp (°C) | Temp (°F) | Dew Point (°C) | Dew Point (°F) | Rel. Humid. | Pressure | Density Altitude | Remarks |
|---|---|---|---|---|---|---|---|---|---|---|---|---|---|---|---|
| 04-сен | 07:15 | VFR | 280° | 11 kt | 7 miles |
22° | 71° | 19° | 66° | 85% | 30.19 in Hg | 5,075 ft | |||
| 04-сен | 06:55 | VFR | 270° | 10 kt | 10 miles |
22° | 71° | 20° | 68° | 87% | 30.19 in Hg | 5,075 ft | Wind gusting to 15 KT | ||
| 04-сен | 06:35 | VFR | 270° | 10 kt | 7 miles |
22° | 71° | 20° | 68° | 88% | 30.18 in Hg | 5,085 ft | |||
| 04-сен | 06:15 | VFR | 280° | 9 kt | 10 miles | 22° | 71° | 20° | 68° | 88% | 30.18 in Hg | 5,085 ft | |||
| 04-сен | 05:55 | VFR | 270° | 11 kt | 10 miles | 22° | 71° | 20° | 68° | 87% | 30.17 in Hg | 5,095 ft | Wind gusting to 15 KT | ||
| 04-сен | 05:35 | VFR | 280° | 10 kt | 10 miles | 22° | 71° | 20° | 68° | 88% | 30.18 in Hg | 5,085 ft | |||
| 04-сен | 05:15 | VFR | 270° | 10 kt | 10 miles | 22° | 71° | 20° | 68° | 89% | 30.18 in Hg | 5,085 ft | |||
| 04-сен | 04:55 | VFR | 280° | 10 kt | 10 miles | 21° | 69° | 20° | 68° | 90% | 30.17 in Hg | 4,975 ft | |||
| 04-сен | 04:35 | VFR | 270° | 9 kt | 10 miles | 22° | 71° | 20° | 68° | 90% | 30.17 in Hg | 5,095 ft | |||
| 04-сен | 04:15 | VFR | 280° | 9 kt | 10 miles | 22° | 71° | 20° | 68° | 88% | 30.17 in Hg | 5,095 ft | |||
| 04-сен | 03:55 | VFR | 270° | 11 kt | 10 miles | 22° | 71° | 20° | 68° | 86% | 30.17 in Hg | 5,095 ft | Wind gusting to 16 KT | ||
| 04-сен | 03:35 | VFR | 260° | 10 kt | 10 miles |
22° | 71° | 20° | 68° | 85% | 30.16 in Hg | 5,105 ft | |||
| 04-сен | 03:15 | VFR | 260° | 10 kt | 7 miles |
23° | 73° | 20° | 68° | 83% | 30.16 in Hg | 5,225 ft | |||
| 04-сен | 02:55 | VFR | 250° | 11 kt | 10 miles | 23° | 73° | 20° | 68° | 82% | 30.16 in Hg | 5,225 ft | |||
| 04-сен | 02:35 | VFR | 260° | 12 kt | 10 miles | 23° | 73° | 19° | 66° | 80% | 30.17 in Hg | 5,215 ft | Wind gusting to 17 KT | ||
| 04-сен | 02:15 | VFR | 250° | 9 kt | 10 miles | 23° | 73° | 19° | 66° | 79% | 30.18 in Hg | 5,205 ft | |||
| 04-сен | 01:55 | VFR | 250° | 9 kt | 10 miles | 23° | 73° | 19° | 66° | 79% | 30.20 in Hg | 5,185 ft | |||
| 04-сен | 01:35 | VFR | 250° | 8 kt | 10 miles | 23° | 73° | 19° | 66° | 79% | 30.21 in Hg | 5,175 ft | |||
| 04-сен | 01:15 | VFR | 250° | 9 kt | 10 miles | 23° | 73° | 20° | 68° | 80% | 30.21 in Hg | 5,175 ft | |||
| 04-сен | 00:55 | VFR | 250° | 8 kt | 10 miles | 23° | 73° | 19° | 66° | 80% | 30.22 in Hg | 5,165 ft | |||
| 04-сен | 00:35 | VFR | 260° | 8 kt | 10 miles | 23° | 73° | 20° | 68° | 79% | 30.22 in Hg | 5,165 ft | |||
| 04-сен | 00:15 | VFR | 260° | 8 kt | 10 miles | 24° | 75° | 20° | 68° | 78% | 30.22 in Hg | 5,285 ft | |||
| 03-сен | 23:55 | VFR | 260° | 7 kt | 10 miles | 24° | 75° | 20° | 68° | 77% | 30.22 in Hg | 5,285 ft | |||
| 03-сен | 23:35 | VFR | 270° | 9 kt | 10 miles | 24° | 75° | 19° | 66° | 76% | 30.23 in Hg | 5,275 ft |
Вход
| Ваш браузер не поддерживается.. обновите веб-браузер |
